Torna al catalogo

STARLINK-5680

AttivoComunicazioniVLEO
NORAD 55455·PAYLOAD·🇺🇸 United States

Lanciato Feb 2, 2023 da Cape Canaveral Space Force Station

Loading…

Prossimi Passaggi (prossime 24 ore)

TLE

AggiornatoSource: CelesTrak SupGP

Epoca: Sep 14, 2026, 21:10 UTC

1 55455C 23015G   26257.88243056 -.00045498  00000+0 -16477-2 0  2578
2 55455  43.0039 340.6756 0002155 285.4745   8.4753 15.27603912    18

Traccia STARLINK-5680 in tempo reale con AllMySat

Download on the App Store